Location: Chervonnoye
(48.6000°N, 34.4000°E)
Time: 10:08:10
(UTC+00:00)

NOAA 15 - Pass Details

Date: 03 December 2021
Orbit: 797 x 812 km, 98.7° (Epoch: 23 January)

Event Time Altitude Azimuth Distance (km) Brightness Sun altitude
Rises 14:34:19 0° 107° (ESE) 3,323 7.3 -7.5°
Reaches altitude 10° 14:37:46 10° 83° (E) 2,394 6.5 -8.0°
Maximum altitude 14:40:25 14° 53° (NE) 2,114 6.2 -8.4°
Drops below altitude 10° 14:43:05 10° 22° (NNE) 2,396 6.6 -8.8°
Sets 14:46:31 0° 359° (N) 3,328 7.6 -9.3°
